Location: Splawn
(30.9202°N, 96.9858°W)
Time: 21:26:59
(UTC+00:00)

Transit 2A Rocket - Pass Details

Date: 06 March 2020
Orbit: 588 x 915 km, 66.7° (Epoch: 09 April)

Event Time Altitude Azimuth Distance (km) Brightness Sun altitude
Rises 00:26:24 0° 178° (S) 2,804 8.0 -0.1°
Reaches altitude 10° 00:28:53 10° 165° (SSE) 1,903 7.0 -0.6°
Maximum altitude 00:32:25 26° 108° (ESE) 1,171 5.5 -1.4°
Drops below altitude 10° 00:36:03 10° 52° (NE) 1,952 6.6 -2.2°
Sets 00:38:37 0° 39° (NE) 2,893 7.6 -2.7°
